IZ3ZOD-13 Weather Reports


Display with metric or nautical units.
time (UTC)temp
F
wind
direction
speed
MPH
gust
MPH
rain 1hr
in
rain 24hr
in
rain mn
in
humidity
%
barometer
mb
20260904232403 70 277 0.0 1.0 0.00 0.00 0.00 87 1016.7
20260904232003 70 276 0.0 1.0 0.00 0.00 0.00 87 1016.9
20260904231603 70 276 0.0 1.0 0.00 0.00 0.00 86 1016.9
20260904231203 70 0 0.0 0.0 0.00 0.00 0.00 86 1016.8
20260904230803 70 277 0.0 2.0 0.00 0.00 0.00 87 1016.9
20260904230614 70 277 0.0 2.0 0.00 0.00 0.00 87 1017.0
20260904230214 70 277 0.0 2.0 0.00 0.00 0.00 87 1016.8
20260904225603 71 0 0.0 0.0 0.00 0.00 0.00 85 1016.9
20260904225203 71 277 0.0 1.0 0.00 0.00 0.00 85 1016.9
20260904224803 71 277 0.0 1.0 0.00 0.00 0.00 85 1017.0
20260904224616 71 277 0.0 1.0 0.00 0.00 0.00 85 1017.0
20260904224003 71 0 0.0 0.0 0.00 0.00 0.00 85 1016.9
20260904223603 71 276 0.0 0.0 0.00 0.00 0.00 85 1017.0
20260904223414 71 276 0.0 1.0 0.00 0.00 0.00 85 1017.0
20260904223014 71 295 0.0 2.0 0.00 0.00 0.00 84 1017.0
20260904222403 72 339 0.0 2.0 0.00 0.00 0.00 83 1016.9
20260904222003 72 0 0.0 0.0 0.00 0.00 0.00 82 1017.1
20260904221603 72 0 0.0 0.0 0.00 0.00 0.00 82 1017.0
20260904221203 72 12 0.0 0.0 0.00 0.00 0.00 82 1017.0
20260904220803 72 12 0.0 1.0 0.00 0.00 0.00 81 1017.0
20260904220403 72 12 0.0 1.0 0.00 0.00 0.00 81 1017.1
20260904220004 73 13 1.0 2.0 0.00 0.00 0.00 80 1016.9
20260904215603 73 13 1.0 2.0 0.00 0.00 0.00 80 1016.9
20260904215203 72 13 1.0 2.0 0.00 0.00 0.00 81 1017.1
20260904214803 72 12 1.0 2.0 0.00 0.00 0.00 81 1017.0
20260904214403 72 12 0.0 1.0 0.00 0.00 0.00 82 1017.0
20260904214216 72 12 0.0 1.0 0.00 0.00 0.00 82 1017.0
20260904213603 72 352 0.0 1.0 0.00 0.00 0.00 82 1017.1
20260904213203 72 352 0.0 1.0 0.00 0.00 0.00 82 1017.1
20260904213014 72 352 0.0 1.0 0.00 0.00 0.00 82 1017.0
20260904212403 72 194 0.0 2.0 0.00 0.00 0.00 82 1017.2
20260904212003 72 194 0.0 2.0 0.00 0.00 0.00 82 1017.1
20260904211813 72 193 0.0 2.0 0.00 0.00 0.00 81 1017.3
20260904211203 72 0 0.0 0.0 0.00 0.00 0.00 82 1017.2
20260904210803 72 0 0.0 0.0 0.00 0.00 0.00 83 1017.2
20260904210616 72 0 0.0 0.0 0.00 0.00 0.00 82 1017.3
20260904210215 72 0 0.0 0.0 0.00 0.00 0.00 82 1017.1
20260904205603 72 0 0.0 0.0 0.00 0.00 0.00 82 1017.1
20260904205203 72 0 0.0 0.0 0.00 0.00 0.00 81 1017.2
20260904204803 73 0 0.0 0.0 0.00 0.00 0.00 80 1017.1
20260904204403 73 0 0.0 0.0 0.00 0.00 0.00 80 1017.1
20260904204217 73 0 0.0 0.0 0.00 0.00 0.00 80 1017.1
20260904203603 73 0 0.0 0.0 0.00 0.00 0.00 79 1017.2
20260904203203 73 0 0.0 0.0 0.00 0.00 0.00 79 1017.1
20260904202803 73 0 0.0 0.0 0.00 0.00 0.00 79 1017.2
20260904202403 73 0 0.0 0.0 0.00 0.00 0.00 79 1017.3
20260904202214 73 0 0.0 0.0 0.00 0.00 0.00 79 1017.3
20260904201603 73 0 0.0 0.0 0.00 0.00 0.00 78 1017.3
20260904201204 73 0 0.0 0.0 0.00 0.00 0.00 78 1017.3
20260904201017 73 0 0.0 0.0 0.00 0.00 0.00 78 1017.2
20260904200616 74 0 0.0 0.0 0.00 0.00 0.00 78 1017.3
20260904200003 74 0 0.0 0.0 0.00 0.00 0.00 77 1017.4
20260904195603 74 0 0.0 0.0 0.00 0.00 0.00 77 1017.4
20260904195203 75 0 0.0 0.0 0.00 0.00 0.00 76 1017.2
20260904194803 75 0 0.0 0.0 0.00 0.00 0.00 76 1017.2
20260904194403 75 0 0.0 0.0 0.00 0.00 0.00 75 1017.3
20260904194213 75 0 0.0 0.0 0.00 0.00 0.00 75 1017.3
20260904193603 75 0 0.0 0.0 0.00 0.00 0.00 74 1017.3
20260904193203 75 0 0.0 0.0 0.00 0.00 0.00 75 1017.3
20260904192803 76 0 0.0 0.0 0.00 0.00 0.00 74 1017.2
20260904192615 76 0 0.0 0.0 0.00 0.00 0.00 73 1017.3
20260904192003 76 191 0.0 0.0 0.00 0.00 0.00 72 1017.3
20260904191603 76 191 0.0 1.0 0.00 0.00 0.00 72 1017.3
20260904191203 76 192 1.0 2.0 0.00 0.00 0.00 72 1017.3
20260904190803 76 193 1.0 2.0 0.00 0.00 0.00 72 1017.3
20260904190617 76 192 1.0 2.0 0.00 0.00 0.00 72 1017.2
20260904190003 76 168 1.0 2.0 0.00 0.00 0.00 73 1017.4
20260904185816 76 161 1.0 2.0 0.00 0.00 0.00 73 1017.4
20260904185203 77 119 0.0 2.0 0.00 0.00 0.00 73 1017.4
20260904184803 77 0 0.0 0.0 0.00 0.00 0.00 73 1017.4
20260904184403 77 0 0.0 0.0 0.00 0.00 0.00 72 1017.1
20260904184003 78 0 0.0 0.0 0.00 0.00 0.00 71 1017.3
20260904183603 78 0 0.0 0.0 0.00 0.00 0.00 70 1017.3
20260904183203 78 0 0.0 0.0 0.00 0.00 0.00 71 1017.2
20260904182803 78 86 0.0 1.0 0.00 0.00 0.00 71 1017.3
20260904182616 78 86 0.0 1.0 0.00 0.00 0.00 72 1017.2
20260904182003 79 85 0.0 1.0 0.00 0.00 0.00 71 1017.1
20260904181603 78 84 0.0 1.0 0.00 0.00 0.00 70 1017.1
20260904181203 79 0 0.0 0.0 0.00 0.00 0.00 71 1017.0
20260904180803 79 0 0.0 0.0 0.00 0.00 0.00 70 1017.0
20260904180403 79 0 0.0 0.0 0.00 0.00 0.00 70 1017.0
20260904180003 80 0 0.0 0.0 0.00 0.00 0.00 70 1016.8
20260904175816 80 0 0.0 0.0 0.00 0.00 0.00 70 1016.9
20260904175203 80 0 0.0 0.0 0.00 0.00 0.00 69 1016.9
20260904174803 80 0 0.0 0.0 0.00 0.00 0.00 68 1016.8
20260904174403 81 0 0.0 0.0 0.00 0.00 0.00 68 1016.9
20260904174003 81 0 0.0 0.0 0.00 0.00 0.00 67 1016.7
20260904173603 82 0 0.0 0.0 0.00 0.00 0.00 66 1016.9
20260904173203 82 85 0.0 2.0 0.00 0.00 0.00 65 1016.8
20260904172803 83 96 0.0 2.0 0.00 0.00 0.00 64 1016.7
20260904172403 83 91 1.0 3.0 0.00 0.00 0.00 63 1016.9
20260904172004 83 92 2.0 4.0 0.00 0.00 0.00 63 1016.9
20260904171815 83 92 2.0 4.0 0.00 0.00 0.00 62 1016.8
20260904171203 84 91 2.0 3.0 0.00 0.00 0.00 61 1016.8
20260904170803 85 96 3.0 8.0 0.00 0.00 0.00 60 1016.8
20260904170403 85 99 3.0 8.0 0.00 0.00 0.00 60 1016.8
20260904170003 85 97 3.0 6.0 0.00 0.00 0.00 59 1016.8
20260904165603 85 93 3.0 6.0 0.00 0.00 0.00 58 1016.9
20260904165203 86 95 3.0 6.0 0.00 0.00 0.00 57 1016.9
20260904165016 86 95 3.0 6.0 0.00 0.00 0.00 57 1016.9
20260904164403 86 95 3.0 7.0 0.00 0.00 0.00 56 1017.0
20260904164003 86 94 3.0 7.0 0.00 0.00 0.00 55 1016.8
20260904163603 87 87 3.0 6.0 0.00 0.00 0.00 54 1017.0
20260904163203 87 91 4.0 9.0 0.00 0.00 0.00 53 1016.8
20260904162803 87 95 4.0 9.0 0.00 0.00 0.00 52 1016.9
20260904162617 87 95 4.0 9.0 0.00 0.00 0.00 52 1017.0
20260904162004 87 94 4.0 9.0 0.00 0.00 0.00 52 1016.9
20260904161603 87 90 4.0 9.0 0.00 0.00 0.00 51 1017.0
20260904161203 88 89 4.0 9.0 0.00 0.00 0.00 51 1016.9
20260904160803 88 85 3.0 8.0 0.00 0.00 0.00 51 1017.1
20260904160403 88 85 3.0 7.0 0.00 0.00 0.00 51 1017.1
20260904160003 88 90 4.0 8.0 0.00 0.00 0.00 52 1017.1
20260904155603 88 83 5.0 10.0 0.00 0.00 0.00 52 1017.1
20260904155203 89 80 5.0 10.0 0.00 0.00 0.00 52 1017.1
20260904154803 89 85 4.0 10.0 0.00 0.00 0.00 53 1017.2
20260904154403 89 86 4.0 9.0 0.00 0.00 0.00 52 1017.2
20260904154003 89 85 5.0 9.0 0.00 0.00 0.00 53 1017.2
20260904153603 89 85 5.0 8.0 0.00 0.00 0.00 53 1017.2
20260904153203 89 80 6.0 11.0 0.00 0.00 0.00 53 1017.2
20260904152803 89 79 6.0 11.0 0.00 0.00 0.00 52 1016.9
20260904152613 89 78 6.0 11.0 0.00 0.00 0.00 52 1017.2
20260904152003 90 88 4.0 7.0 0.00 0.00 0.00 54 1017.3
20260904151603 90 91 5.0 9.0 0.00 0.00 0.00 52 1017.3
20260904151203 90 87 5.0 9.0 0.00 0.00 0.00 53 1017.1
20260904150803 90 89 4.0 9.0 0.00 0.00 0.00 52 1017.2
20260904150403 90 95 4.0 9.0 0.00 0.00 0.00 52 1017.2
20260904150004 90 87 4.0 9.0 0.00 0.00 0.00 51 1017.2
20260904145603 90 72 4.0 9.0 0.00 0.00 0.00 50 1017.4
20260904145203 90 73 6.0 9.0 0.00 0.00 0.00 52 1017.4
20260904144803 89 77 5.0 9.0 0.00 0.00 0.00 53 1017.4
20260904144403 90 76 5.0 11.0 0.00 0.00 0.00 52 1017.4
20260904144216 90 77 5.0 11.0 0.00 0.00 0.00 52 1017.4
20260904143603 89 82 6.0 11.0 0.00 0.00 0.00 52 1017.5
20260904143415 90 84 6.0 9.0 0.00 0.00 0.00 52 1017.5
20260904142803 90 79 6.0 9.0 0.00 0.00 0.00 53 1017.6
20260904142403 90 76 6.0 9.0 0.00 0.00 0.00 53 1017.5
20260904142213 90 75 6.0 9.0 0.00 0.00 0.00 53 1017.7
20260904141603 89 78 6.0 11.0 0.00 0.00 0.00 54 1017.6
20260904141416 89 78 6.0 11.0 0.00 0.00 0.00 53 1017.8
20260904140803 90 76 6.0 13.0 0.00 0.00 0.00 55 1018.0
20260904140403 89 72 6.0 13.0 0.00 0.00 0.00 55 1017.9
20260904140003 89 77 7.0 13.0 0.00 0.00 0.00 56 1018.0
20260904135603 89 79 6.0 10.0 0.00 0.00 0.00 55 1018.1
20260904135413 90 80 6.0 10.0 0.00 0.00 0.00 54 1017.9
20260904134803 89 73 7.0 13.0 0.00 0.00 0.00 56 1018.0
20260904134617 89 73 7.0 13.0 0.00 0.00 0.00 56 1018.0
20260904134003 90 83 6.0 10.0 0.00 0.00 0.00 55 1018.0
20260904133603 90 88 6.0 11.0 0.00 0.00 0.00 56 1018.1
20260904133415 90 85 6.0 11.0 0.00 0.00 0.00 57 1018.1
20260904132803 90 78 6.0 10.0 0.00 0.00 0.00 57 1018.2
20260904132403 91 80 5.0 8.0 0.00 0.00 0.00 56 1018.0
20260904132003 91 71 5.0 9.0 0.00 0.00 0.00 55 1018.1
20260904131603 90 65 6.0 9.0 0.00 0.00 0.00 56 1018.2
20260904131417 91 62 5.0 9.0 0.00 0.00 0.00 55 1018.1
20260904130803 92 58 3.0 8.0 0.00 0.00 0.00 54 1018.1
20260904130403 95 160 2.0 6.0 0.00 0.00 0.00 51 1018.3
20260904130215 95 163 2.0 6.0 0.00 0.00 0.00 43 1018.5
20260904125603 94 90 2.0 6.0 0.00 0.00 0.00 43 1018.4
20260904125203 93 109 2.0 5.0 0.00 0.00 0.00 42 1018.5
20260904124803 93 180 2.0 5.0 0.00 0.00 0.00 41 1018.5
20260904124403 93 233 3.0 8.0 0.00 0.00 0.00 41 1018.4
20260904124003 93 240 3.0 8.0 0.00 0.00 0.00 43 1018.6
20260904123603 93 236 3.0 8.0 0.00 0.00 0.00 42 1018.7
20260904123203 94 212 3.0 7.0 0.00 0.00 0.00 43 1018.6
20260904122804 94 200 2.0 7.0 0.00 0.00 0.00 43 1018.8
20260904122403 94 202 2.0 7.0 0.00 0.00 0.00 43 1018.7
20260904122003 94 194 2.0 7.0 0.00 0.00 0.00 44 1018.6
20260904121603 94 190 2.0 5.0 0.00 0.00 0.00 46 1018.6
20260904121412 93 182 1.0 5.0 0.00 0.00 0.00 44 1018.5
20260904120803 93 195 3.0 6.0 0.00 0.00 0.00 44 1018.6
20260904120403 92 180 4.0 8.0 0.00 0.00 0.00 44 1018.6
20260904120003 92 189 4.0 9.0 0.00 0.00 0.00 49 1018.7
20260904115603 92 203 4.0 9.0 0.00 0.00 0.00 44 1018.8
20260904115203 92 223 3.0 7.0 0.00 0.00 0.00 46 1018.7
20260904114803 92 207 3.0 7.0 0.00 0.00 0.00 44 1019.0
20260904114403 92 222 3.0 7.0 0.00 0.00 0.00 43 1018.8
20260904114003 91 243 3.0 7.0 0.00 0.00 0.00 47 1018.8
20260904113603 92 235 3.0 7.0 0.00 0.00 0.00 45 1019.0
20260904113203 92 224 2.0 7.0 0.00 0.00 0.00 46 1019.0
20260904113016 92 205 2.0 7.0 0.00 0.00 0.00 45 1019.1
20260904112403 92 167 2.0 6.0 0.00 0.00 0.00 46 1019.1
20260904112003 92 145 2.0 6.0 0.00 0.00 0.00 45 1019.2
20260904111603 92 36 2.0 4.0 0.00 0.00 0.00 46 1019.2
20260904111203 91 9 1.0 4.0 0.00 0.00 0.00 47 1019.2
20260904110803 92 258 2.0 4.0 0.00 0.00 0.00 46 1019.3
20260904110403 91 212 2.0 4.0 0.00 0.00 0.00 46 1019.4
20260904110216 90 212 2.0 4.0 0.00 0.00 0.00 47 1019.4
20260904105816 91 208 3.0 8.0 0.00 0.00 0.00 48 1019.5
20260904105203 91 212 3.0 8.0 0.00 0.00 0.00 50 1019.3
20260904104803 90 195 3.0 8.0 0.00 0.00 0.00 49 1019.3
20260904104403 90 192 3.0 8.0 0.00 0.00 0.00 49 1019.5
20260904104003 90 222 2.0 8.0 0.00 0.00 0.00 47 1019.5
20260904103603 90 237 2.0 3.0 0.00 0.00 0.00 47 1019.5
20260904103417 90 222 2.0 5.0 0.00 0.00 0.00 47 1019.5
20260904103016 89 186 4.0 8.0 0.00 0.00 0.00 49 1019.4
20260904102616 90 188 3.0 8.0 0.00 0.00 0.00 49 1019.5
20260904102003 90 217 2.0 3.0 0.00 0.00 0.00 52 1019.6
20260904101603 91 206 1.0 3.0 0.00 0.00 0.00 50 1019.6
20260904101203 89 200 2.0 7.0 0.00 0.00 0.00 52 1019.6
20260904100803 88 205 3.0 7.0 0.00 0.00 0.00 51 1019.6
20260904100404 89 220 4.0 6.0 0.00 0.00 0.00 53 1019.4
20260904095603 90 200 2.0 6.0 0.00 0.00 0.00 51 1019.5
20260904095203 90 140 1.0 3.0 0.00 0.00 0.00 52 1019.7
20260904094803 90 115 1.0 3.0 0.00 0.00 0.00 51 1019.6
20260904094403 89 116 1.0 3.0 0.00 0.00 0.00 50 1019.7
20260904094213 89 103 1.0 3.0 0.00 0.00 0.00 51 1019.8
20260904093813 88 68 2.0 3.0 0.00 0.00 0.00 52 1019.9
20260904093203 87 66 2.0 4.0 0.00 0.00 0.00 54 1019.8
20260904092803 88 170 1.0 4.0 0.00 0.00 0.00 53 1019.8
20260904092403 87 195 1.0 3.0 0.00 0.00 0.00 53 1020.1
20260904092003 87 137 2.0 6.0 0.00 0.00 0.00 53 1019.9
20260904091603 87 138 2.0 6.0 0.00 0.00 0.00 53 1020.0
20260904091203 87 149 2.0 6.0 0.00 0.00 0.00 51 1020.0
20260904091013 87 150 2.0 4.0 0.00 0.00 0.00 51 1020.1
20260904090613 86 144 2.0 4.0 0.00 0.00 0.00 55 1019.9
20260904090004 86 121 2.0 4.0 0.00 0.00 0.00 54 1020.0
20260904085603 86 97 2.0 4.0 0.00 0.00 0.00 54 1020.1
20260904085203 86 84 2.0 4.0 0.00 0.00 0.00 55 1020.1
20260904085015 86 79 2.0 4.0 0.00 0.00 0.00 57 1020.1
20260904084403 85 72 1.0 3.0 0.00 0.00 0.00 57 1020.0
20260904084003 85 43 1.0 3.0 0.00 0.00 0.00 58 1019.8
20260904083603 84 38 1.0 3.0 0.00 0.00 0.00 59 1020.0
20260904083203 84 38 1.0 3.0 0.00 0.00 0.00 60 1020.0
20260904083017 84 28 1.0 2.0 0.00 0.00 0.00 60 1020.0
20260904082403 83 36 2.0 3.0 0.00 0.00 0.00 59 1020.0
20260904082003 83 54 2.0 3.0 0.00 0.00 0.00 60 1019.9
20260904081603 84 64 1.0 3.0 0.00 0.00 0.00 58 1019.9
20260904081203 83 48 1.0 3.0 0.00 0.00 0.00 59 1019.9
20260904080803 83 15 1.0 2.0 0.00 0.00 0.00 60 1020.0
20260904080403 83 344 1.0 2.0 0.00 0.00 0.00 60 1020.1
20260904080003 83 335 1.0 2.0 0.00 0.00 0.00 60 1020.0
20260904075817 82 358 1.0 2.0 0.00 0.00 0.00 60 1020.1
20260904075203 82 8 1.0 3.0 0.00 0.00 0.00 62 1019.8
20260904074803 81 13 2.0 3.0 0.00 0.00 0.00 63 1019.8
20260904074403 80 8 2.0 3.0 0.00 0.00 0.00 64 1019.9
20260904074003 81 12 1.0 3.0 0.00 0.00 0.00 63 1019.9
20260904073603 80 9 1.0 3.0 0.00 0.00 0.00 63 1019.8
20260904073203 80 22 1.0 3.0 0.00 0.00 0.00 63 1019.7
20260904072803 80 16 1.0 3.0 0.00 0.00 0.00 65 1019.8
20260904072403 80 1 1.0 2.0 0.00 0.00 0.00 64 1019.9
20260904072003 80 8 1.0 3.0 0.00 0.00 0.00 64 1019.9
20260904071603 79 13 1.0 3.0 0.00 0.00 0.00 65 1019.7
20260904071203 78 26 1.0 3.0 0.00 0.00 0.00 67 1019.7
20260904070803 78 30 1.0 3.0 0.00 0.00 0.00 69 1019.7
20260904070403 78 27 1.0 3.0 0.00 0.00 0.00 70 1020.0
20260904070004 78 14 1.0 3.0 0.00 0.00 0.00 68 1019.5
20260904065603 77 2 1.0 3.0 0.00 0.00 0.00 69 1020.0
20260904065203 77 4 1.0 3.0 0.00 0.00 0.00 70 1019.6
20260904065017 76 8 1.0 3.0 0.00 0.00 0.00 72 1019.6
20260904064403 76 5 1.0 3.0 0.00 0.00 0.00 71 1019.8
20260904064003 76 359 1.0 3.0 0.00 0.00 0.00 72 1019.6
20260904063603 76 5 1.0 3.0 0.00 0.00 0.00 72 1019.7
20260904063203 76 7 1.0 3.0 0.00 0.00 0.00 71 1019.7
20260904062803 76 4 1.0 2.0 0.00 0.00 0.00 71 1019.7
20260904062403 76 2 0.0 2.0 0.00 0.00 0.00 70 1019.5
20260904062003 75 6 0.0 1.0 0.00 0.00 0.00 72 1019.6
20260904061603 75 360 0.0 1.0 0.00 0.00 0.00 73 1019.4
20260904061416 75 354 0.0 1.0 0.00 0.00 0.00 74 1019.5
20260904060803 74 354 0.0 1.0 0.00 0.00 0.00 75 1019.4
20260904060615 74 354 0.0 1.0 0.00 0.00 0.00 75 1019.6
20260904060003 73 354 0.0 1.0 0.00 0.00 0.00 76 1019.6
20260904055603 73 0 0.0 0.0 0.00 0.00 0.00 77 1019.4
20260904055203 72 0 0.0 0.0 0.00 0.00 0.00 76 1019.3
20260904054803 72 0 0.0 0.0 0.00 0.00 0.00 78 1019.4
20260904054617 72 0 0.0 0.0 0.00 0.00 0.00 78 1019.4
20260904054003 72 0 0.0 0.0 0.00 0.00 0.00 78 1019.4
20260904053603 71 330 0.0 1.0 0.00 0.00 0.00 78 1019.3
20260904053415 71 330 0.0 1.0 0.00 0.00 0.00 79 1019.4
20260904052803 71 331 0.0 1.0 0.00 0.00 0.00 79 1019.4
20260904052403 70 0 0.0 0.0 0.00 0.00 0.00 81 1019.3
20260904052003 70 307 0.0 1.0 0.00 0.00 0.00 81 1019.3
20260904051603 69 307 0.0 1.0 0.00 0.00 0.00 82 1019.2
20260904051203 69 296 0.0 1.0 0.00 0.00 0.00 82 1019.0
20260904050803 69 292 0.0 1.0 0.00 0.00 0.00 82 1019.1
20260904050403 69 276 0.0 1.0 0.00 0.00 0.00 83 1019.2
20260904050003 69 276 0.0 1.0 0.00 0.00 0.00 83 1019.1
20260904045603 69 280 0.0 1.0 0.00 0.00 0.00 83 1019.0
20260904045203 68 283 0.0 1.0 0.00 0.00 0.00 83 1019.2
20260904045013 68 288 0.0 1.0 0.00 0.00 0.00 83 1019.2
20260904044617 68 0 0.0 0.0 0.00 0.00 0.00 83 1019.1
20260904044003 68 0 0.0 0.0 0.00 0.00 0.00 84 1019.1
20260904043816 68 0 0.0 0.0 0.00 0.00 0.00 84 1018.9
20260904043415 68 275 0.0 0.0 0.00 0.00 0.00 84 1018.9
20260904042803 68 275 0.0 1.0 0.00 0.00 0.00 84 1019.0
20260904042403 68 276 0.0 1.0 0.00 0.00 0.00 84 1019.1
20260904042003 68 0 0.0 0.0 0.00 0.00 0.00 84 1019.0
20260904041603 68 0 0.0 0.0 0.00 0.00 0.00 83 1019.0
20260904041203 69 0 0.0 0.0 0.00 0.00 0.00 82 1018.9
20260904040803 69 276 0.0 1.0 0.00 0.00 0.00 82 1018.9
20260904040616 69 277 0.0 1.0 0.00 0.00 0.00 82 1018.8
20260904040215 69 278 0.0 2.0 0.00 0.00 0.00 82 1018.8
20260904035603 69 277 0.0 2.0 0.00 0.00 0.00 82 1019.0
20260904035203 69 277 1.0 2.0 0.00 0.00 0.00 82 1018.9
20260904034803 69 274 1.0 2.0 0.00 0.00 0.00 82 1019.1
20260904034403 69 273 1.0 3.0 0.00 0.00 0.00 82 1019.0
20260904034003 68 273 1.0 3.0 0.00 0.00 0.00 82 1018.9
20260904033603 68 256 0.0 2.0 0.00 0.00 0.00 83 1019.1
20260904033203 68 0 0.0 0.0 0.00 0.00 0.00 83 1018.9
20260904032803 68 0 0.0 0.0 0.00 0.00 0.00 84 1018.8
20260904032403 67 0 0.0 0.0 0.00 0.00 0.00 84 1018.9
20260904032003 67 0 0.0 0.0 0.00 0.00 0.00 84 1018.8
20260904031603 67 0 0.0 0.0 0.00 0.00 0.00 84 1018.8
20260904031413 67 0 0.0 0.0 0.00 0.00 0.00 84 1018.9
20260904030803 68 0 0.0 0.0 0.00 0.00 0.00 84 1018.7
20260904030403 68 0 0.0 0.0 0.00 0.00 0.00 83 1018.8
20260904030216 68 0 0.0 0.0 0.00 0.00 0.00 83 1018.8
20260904025603 68 0 0.0 0.0 0.00 0.00 0.00 84 1018.8
20260904025203 68 0 0.0 0.0 0.00 0.00 0.00 84 1018.7
20260904024803 68 0 0.0 0.0 0.00 0.00 0.00 83 1018.8
20260904024403 68 0 0.0 0.0 0.00 0.00 0.00 82 1018.6
20260904024003 68 0 0.0 0.0 0.00 0.00 0.00 82 1018.8
20260904023603 68 0 0.0 0.0 0.00 0.00 0.00 81 1018.9
20260904023203 69 0 0.0 0.0 0.00 0.00 0.00 81 1018.9
20260904022803 69 0 0.0 0.0 0.00 0.00 0.00 80 1018.8
20260904022403 69 0 0.0 0.0 0.00 0.00 0.00 81 1018.7
20260904022003 69 0 0.0 0.0 0.00 0.00 0.00 81 1018.8
20260904021603 69 0 0.0 0.0 0.00 0.00 0.00 80 1019.0
20260904021203 69 0 0.0 0.0 0.00 0.00 0.00 80 1018.7
20260904020803 69 0 0.0 0.0 0.00 0.00 0.00 81 1018.7
20260904020612 69 0 0.0 0.0 0.00 0.00 0.00 81 1018.9
20260904020003 69 0 0.0 0.0 0.00 0.00 0.00 80 1018.7
20260904015603 69 0 0.0 0.0 0.00 0.00 0.00 81 1018.6
20260904015415 69 0 0.0 0.0 0.00 0.00 0.00 80 1018.7
20260904014803 69 0 0.0 0.0 0.00 0.00 0.00 81 1018.7
20260904014403 69 0 0.0 0.0 0.00 0.00 0.00 80 1018.6
20260904014213 69 0 0.0 0.0 0.00 0.00 0.00 80 1018.7
20260904013813 69 0 0.0 0.0 0.00 0.00 0.00 80 1018.5
20260904013203 69 0 0.0 0.0 0.00 0.00 0.00 80 1018.8
20260904012803 69 0 0.0 0.0 0.00 0.00 0.00 80 1018.6
20260904012403 69 0 0.0 0.0 0.00 0.00 0.00 80 1018.5
20260904012003 69 0 0.0 0.0 0.00 0.00 0.00 80 1018.7
20260904011603 69 0 0.0 0.0 0.00 0.00 0.00 80 1018.7
20260904011414 69 0 0.0 0.0 0.00 0.00 0.00 80 1018.7
20260904011013 69 0 0.0 0.0 0.00 0.00 0.00 81 1018.8
20260904010403 69 0 0.0 0.0 0.00 0.00 0.00 81 1018.8
20260904010003 70 0 0.0 0.0 0.00 0.00 0.00 80 1018.6
20260904005817 70 0 0.0 0.0 0.00 0.00 0.00 80 1018.9
20260904005203 70 0 0.0 0.0 0.00 0.00 0.00 81 1018.7
20260904004803 69 0 0.0 0.0 0.00 0.00 0.00 81 1018.8
20260904004403 69 0 0.0 0.0 0.00 0.00 0.00 81 1018.9
20260904004003 69 0 0.0 0.0 0.00 0.00 0.00 81 1018.8
20260904003603 70 0 0.0 0.0 0.00 0.00 0.00 82 1018.7
20260904003203 70 0 0.0 0.0 0.00 0.00 0.00 81 1018.7
20260904002803 70 0 0.0 0.0 0.00 0.00 0.00 81 1018.6
20260904002403 69 0 0.0 0.0 0.00 0.00 0.00 81 1018.9
20260904002003 70 0 0.0 0.0 0.00 0.00 0.00 81 1018.9
20260904001603 70 0 0.0 0.0 0.00 0.00 0.00 82 1018.8
20260904001203 69 0 0.0 0.0 0.00 0.00 0.00 83 1018.9
20260904000803 69 0 0.0 0.0 0.00 0.00 0.00 83 1019.0
20260904000403 69 0 0.0 0.0 0.00 0.00 0.00 83 1018.8
20260904000213 70 0 0.0 0.0 0.00 0.00 0.00 83 1018.8
20260903235603 70 0 0.0 0.0 0.00 0.00 0.00 83 1018.8
20260903235203 70 0 0.0 0.0 0.00 0.00 0.00 83 1019.0
20260903234803 70 0 0.0 0.0 0.00 0.00 0.00 82 1018.8
20260903234615 70 0 0.0 0.0 0.00 0.00 0.00 82 1018.7
20260903234215 70 0 0.0 0.0 0.00 0.00 0.00 83 1019.0
20260903233603 70 242 0.0 1.0 0.00 0.00 0.00 82 1018.9
20260903233203 70 242 0.0 1.0 0.00 0.00 0.00 81 1019.0
20260903232803 71 242 1.0 1.0 0.00 0.00 0.00 81 1018.8